CW0029 Weather Reports


Display with metric or nautical units.
time (UTC)temp
F
wind
direction
speed
MPH
gust
MPH
rain 1hr
in
rain 24hr
in
rain mn
in
humidity
%
barometer
mb
20240301015904 74 338 5.0 7.0 0.00 0.00 0.00 75 1023.2
20240301014904 74 338 5.0 6.0 0.00 0.00 0.00 75 1023.2
20240301014404 74 338 5.0 6.0 0.00 0.00 0.00 75 1023.2
20240301013904 74 338 5.0 7.0 0.00 0.00 0.00 76 1023.0
20240301013403 74 338 5.0 6.0 0.00 0.00 0.00 76 1023.0
20240301012904 74 338 5.0 6.0 0.00 0.00 0.00 76 1023.1
20240301012404 74 338 5.0 6.0 0.00 0.00 0.00 76 1023.1
20240301011405 74 338 5.0 6.0 0.00 0.00 0.00 76 1022.9
20240301010904 74 338 5.0 6.0 0.00 0.00 0.00 76 1022.9
20240301010404 74 338 3.0 6.0 0.00 0.00 0.00 76 1022.9
20240301005903 74 338 4.0 6.0 0.00 0.00 0.00 76 1022.9
20240301005403 74 338 5.0 6.0 0.00 0.00 0.00 75 1022.8
20240301004903 74 338 5.0 7.0 0.00 0.00 0.00 75 1022.8
20240301004403 75 338 4.0 8.0 0.00 0.00 0.00 75 1022.8
20240301002904 75 338 5.0 6.0 0.00 0.00 0.00 75 1022.7
20240301002406 75 338 5.0 7.0 0.00 0.00 0.00 75 1022.7
20240301001905 75 338 5.0 6.0 0.00 0.00 0.00 75 1022.7
20240301001405 75 338 4.0 8.0 0.00 0.00 0.00 74 1022.8
20240301000905 75 338 6.0 8.0 0.00 0.00 0.00 74 1022.8
20240301000404 75 338 5.0 6.0 0.00 0.00 0.00 74 1022.8
20240229235905 75 338 5.0 6.0 0.00 0.00 0.00 74 1022.8
20240229235405 75 338 3.0 6.0 0.00 0.00 0.00 74 1022.6
20240229234905 75 338 5.0 7.0 0.00 0.00 0.00 74 1022.6
20240229234405 75 338 5.0 6.0 0.00 0.00 0.00 74 1022.6
20240229233905 75 338 5.0 7.0 0.00 0.00 0.00 74 1022.5
20240229233405 75 338 6.0 7.0 0.00 0.00 0.00 74 1022.5
20240229232905 76 338 4.0 7.0 0.00 0.00 0.00 74 1022.5
20240229232406 76 338 7.0 8.0 0.00 0.00 0.00 73 1022.5
20240229231905 76 338 5.0 7.0 0.00 0.00 0.00 73 1022.4
20240229231404 76 338 6.0 7.0 0.00 0.00 0.00 73 1022.4
20240229230905 76 338 5.0 7.0 0.00 0.00 0.00 73 1022.4
20240229230405 76 338 5.0 7.0 0.00 0.00 0.00 73 1022.2
20240229225906 76 338 5.0 7.0 0.00 0.00 0.00 73 1022.2
20240229224905 76 338 7.0 7.0 0.00 0.00 0.00 73 1022.1
20240229224405 76 338 7.0 10.0 0.00 0.00 0.00 73 1022.1
20240229223905 77 338 7.0 8.0 0.00 0.00 0.00 73 1022.0
20240229223405 77 338 6.0 9.0 0.00 0.00 0.00 72 1022.0
20240229222905 77 338 6.0 9.0 0.00 0.00 0.00 72 1021.9
20240229222405 77 338 7.0 10.0 0.00 0.00 0.00 72 1021.9
20240229221904 77 338 7.0 9.0 0.00 0.00 0.00 71 1021.9
20240229221405 77 338 6.0 8.0 0.00 0.00 0.00 71 1021.9
20240229220905 78 338 8.0 10.0 0.00 0.00 0.00 71 1021.9
20240229220404 78 338 5.0 7.0 0.00 0.00 0.00 71 1021.7
20240229215905 78 338 6.0 8.0 0.00 0.00 0.00 71 1021.7
20240229215405 78 338 6.0 8.0 0.00 0.00 0.00 70 1021.7
20240229214905 78 338 8.0 10.0 0.00 0.00 0.00 70 1021.7
20240229214404 79 338 7.0 10.0 0.00 0.00 0.00 69 1021.7
20240229213905 78 338 7.0 13.0 0.00 0.00 0.00 70 1021.5
20240229212904 79 338 6.0 8.0 0.00 0.00 0.00 69 1021.4
20240229212405 79 338 6.0 9.0 0.00 0.00 0.00 69 1021.4
20240229211905 79 338 7.0 10.0 0.00 0.00 0.00 68 1021.4
20240229211405 80 338 9.0 10.0 0.00 0.00 0.00 67 1021.3
20240229210905 80 338 9.0 10.0 0.00 0.00 0.00 67 1021.3
20240229205905 80 338 6.0 7.0 0.00 0.00 0.00 69 1021.3
20240229204405 80 338 7.0 8.0 0.00 0.00 0.00 69 1021.4
20240229203905 80 338 6.0 8.0 0.00 0.00 0.00 69 1021.6
20240229203405 81 338 6.0 10.0 0.00 0.00 0.00 69 1021.6
20240229202405 80 338 9.0 10.0 0.00 0.00 0.00 68 1021.7
20240229201905 81 338 6.0 9.0 0.00 0.00 0.00 67 1021.7
20240229201405 81 338 5.0 8.0 0.00 0.00 0.00 68 1021.8
20240229200404 81 338 5.0 7.0 0.00 0.00 0.00 68 1021.8
20240229195404 81 338 5.0 9.0 0.00 0.00 0.00 68 1021.9
20240229194905 80 338 7.0 10.0 0.00 0.00 0.00 66 1021.9
20240229193905 81 338 5.0 13.0 0.00 0.00 0.00 68 1021.9
20240229193404 81 338 7.0 13.0 0.00 0.00 0.00 67 1021.9
20240229192905 82 338 7.0 9.0 0.00 0.00 0.00 66 1022.1
20240229192404 81 338 8.0 10.0 0.00 0.00 0.00 67 1022.1
20240229191905 81 338 7.0 9.0 0.00 0.00 0.00 68 1022.1
20240229191404 81 338 6.0 7.0 0.00 0.00 0.00 67 1022.2
20240229190405 81 338 5.0 10.0 0.00 0.00 0.00 68 1022.0
20240229185905 81 338 8.0 10.0 0.00 0.00 0.00 67 1022.0
20240229185405 81 338 7.0 8.0 0.00 0.00 0.00 69 1022.2
20240229184904 80 338 6.0 10.0 0.00 0.00 0.00 69 1022.2
20240229184404 81 338 6.0 9.0 0.00 0.00 0.00 67 1022.2
20240229183904 81 338 8.0 10.0 0.00 0.00 0.00 68 1022.3
20240229183405 82 338 7.0 10.0 0.00 0.00 0.00 69 1022.3
20240229182405 81 338 6.0 9.0 0.00 0.00 0.00 69 1022.6
20240229181905 80 338 7.0 8.0 0.00 0.00 0.00 69 1022.6
20240229181405 80 338 4.0 6.0 0.00 0.00 0.00 70 1022.7
20240229180904 80 338 5.0 8.0 0.00 0.00 0.00 71 1022.7
20240229180405 80 338 5.0 7.0 0.00 0.00 0.00 69 1022.8
20240229175905 80 338 6.0 7.0 0.00 0.00 0.00 69 1022.8
20240229175405 81 338 6.0 9.0 0.00 0.00 0.00 68 1022.8
20240229174905 81 338 7.0 9.0 0.00 0.00 0.00 69 1022.8
20240229174404 80 338 6.0 7.0 0.00 0.00 0.00 68 1022.8
20240229173905 81 338 5.0 10.0 0.00 0.00 0.00 69 1022.8
20240229172905 80 338 7.0 10.0 0.00 0.00 0.00 69 1022.9
20240229171905 80 338 7.0 10.0 0.00 0.00 0.00 71 1023.0
20240229171404 80 338 7.0 9.0 0.00 0.00 0.00 71 1023.1
20240229170905 80 338 6.0 13.0 0.00 0.00 0.00 70 1023.1
20240229170404 80 338 7.0 13.0 0.00 0.00 0.00 69 1023.3
20240229165904 80 338 6.0 8.0 0.00 0.00 0.00 71 1023.3
20240229165405 80 338 8.0 12.0 0.00 0.00 0.00 70 1023.3
20240229164904 82 338 8.0 12.0 0.00 0.00 0.00 66 1023.3
20240229164404 81 338 6.0 9.0 0.00 0.00 0.00 69 1023.3
20240229163905 81 338 5.0 8.0 0.00 0.00 0.00 70 1023.4
20240229163404 82 338 7.0 10.0 0.00 0.00 0.00 69 1023.4
20240229162905 81 338 6.0 10.0 0.00 0.00 0.00 68 1023.5
20240229162404 80 338 7.0 9.0 0.00 0.00 0.00 70 1023.5
20240229161905 80 338 9.0 12.0 0.00 0.00 0.00 69 1023.5
20240229161404 80 338 6.0 9.0 0.00 0.00 0.00 69 1023.4
20240229160905 80 338 7.0 9.0 0.00 0.00 0.00 69 1023.4
20240229160404 81 338 7.0 9.0 0.00 0.00 0.00 68 1023.6
20240229154904 78 338 5.0 9.0 0.00 0.00 0.00 71 1023.5
20240229154405 79 338 6.0 7.0 0.00 0.00 0.00 70 1023.5
20240229153905 80 338 6.0 8.0 0.00 0.00 0.00 68 1023.6
20240229153404 80 338 5.0 8.0 0.00 0.00 0.00 68 1023.6
20240229152904 80 338 6.0 7.0 0.00 0.00 0.00 69 1023.5
20240229151905 79 338 6.0 7.0 0.00 0.00 0.00 71 1023.5
20240229151405 78 338 4.0 6.0 0.00 0.00 0.00 72 1023.7
20240229150904 78 338 4.0 6.0 0.00 0.00 0.00 72 1023.7
20240229150404 79 338 5.0 7.0 0.00 0.00 0.00 73 1023.5
20240229145405 78 338 3.0 3.0 0.00 0.00 0.00 73 1023.6
20240229144905 78 338 2.0 3.0 0.00 0.00 0.00 74 1023.6
20240229144404 78 338 3.0 5.0 0.00 0.00 0.00 74 1023.6
20240229143905 78 338 3.0 6.0 0.00 0.00 0.00 74 1023.5
20240229142905 78 338 0.0 0.0 0.00 0.00 0.00 74 1023.6
20240229142404 78 338 0.0 0.0 0.00 0.00 0.00 75 1023.6
20240229141905 77 338 0.0 0.0 0.00 0.00 0.00 75 1023.5
20240229141404 77 338 0.0 0.0 0.00 0.00 0.00 76 1023.5
20240229140905 77 338 0.0 0.0 0.00 0.00 0.00 77 1023.5
20240229135905 75 338 0.0 0.0 0.00 0.00 0.00 78 1023.3
20240229135404 75 338 0.0 0.0 0.00 0.00 0.00 79 1023.3
20240229134905 75 338 0.0 0.0 0.00 0.00 0.00 79 1023.3
20240229134404 74 338 0.0 0.0 0.00 0.00 0.00 80 1023.3
20240229133404 73 338 0.0 0.0 0.00 0.00 0.00 81 1023.2
20240229132905 72 338 0.0 0.0 0.00 0.00 0.00 82 1023.1
20240229132404 72 338 0.0 0.0 0.00 0.00 0.00 82 1023.1
20240229131905 71 338 0.0 0.0 0.00 0.00 0.00 82 1023.1
20240229131404 71 338 0.0 1.0 0.00 0.00 0.00 83 1023.0
20240229130904 70 338 0.0 1.0 0.00 0.00 0.00 84 1023.0
20240229130404 69 338 0.0 0.0 0.00 0.00 0.00 87 1022.8
20240229125904 69 338 0.0 2.0 0.00 0.00 0.00 91 1022.8
20240229125404 68 338 1.0 2.0 0.00 0.00 0.00 91 1022.7
20240229124904 68 338 0.0 1.0 0.00 0.00 0.00 91 1022.7
20240229124406 68 338 0.0 0.0 0.00 0.00 0.00 91 1022.7
20240229123904 67 338 0.0 0.0 0.00 0.00 0.00 91 1022.7
20240229123404 67 338 0.0 0.0 0.00 0.00 0.00 91 1022.7
20240229122904 67 338 0.0 0.0 0.00 0.00 0.00 91 1022.6
20240229122405 67 338 0.0 0.0 0.00 0.00 0.00 91 1022.6
20240229121904 66 338 0.0 0.0 0.00 0.00 0.00 91 1022.5
20240229121404 66 338 0.0 0.0 0.00 0.00 0.00 91 1022.5
20240229120905 66 338 0.0 0.0 0.00 0.00 0.00 91 1022.5
20240229120405 66 338 0.0 1.0 0.00 0.00 0.00 91 1022.4
20240229115905 66 338 0.0 0.0 0.00 0.00 0.00 91 1022.4
20240229115404 66 338 0.0 1.0 0.00 0.00 0.00 91 1022.1
20240229114906 66 338 0.0 0.0 0.00 0.00 0.00 91 1022.1
20240229114404 66 338 0.0 0.0 0.00 0.00 0.00 91 1022.1
20240229113905 66 338 0.0 2.0 0.00 0.00 0.00 91 1022.1
20240229113404 66 338 2.0 2.0 0.00 0.00 0.00 91 1022.1
20240229112904 66 338 0.0 0.0 0.00 0.00 0.00 91 1022.0
20240229112405 66 338 0.0 0.0 0.00 0.00 0.00 91 1022.0
20240229111904 66 338 0.0 0.0 0.00 0.00 0.00 91 1022.0
20240229111405 66 338 0.0 1.0 0.00 0.00 0.00 91 1022.0
20240229110904 66 338 1.0 2.0 0.00 0.00 0.00 91 1022.0
20240229105404 65 338 0.0 0.0 0.00 0.00 0.00 91 1021.6
20240229104904 65 338 0.0 0.0 0.00 0.00 0.00 91 1021.5
20240229103904 65 338 0.0 0.0 0.00 0.00 0.00 91 1021.3
20240229103405 65 338 0.0 0.0 0.00 0.00 0.00 91 1021.3
20240229102405 65 338 0.0 0.0 0.00 0.00 0.00 90 1021.2
20240229101904 65 338 0.0 0.0 0.00 0.00 0.00 90 1021.1
20240229101405 66 338 0.0 0.0 0.00 0.00 0.00 90 1021.1
20240229100904 66 338 0.0 0.0 0.00 0.00 0.00 90 1021.1
20240229100404 66 338 0.0 0.0 0.00 0.00 0.00 90 1021.1
20240229095904 66 338 0.0 0.0 0.00 0.00 0.00 90 1021.1
20240229095405 66 338 0.0 0.0 0.00 0.00 0.00 90 1021.1
20240229094404 66 338 0.0 0.0 0.00 0.00 0.00 90 1021.1
20240229093904 66 338 0.0 0.0 0.00 0.00 0.00 90 1021.2
20240229093404 66 338 0.0 0.0 0.00 0.00 0.00 90 1021.2
20240229092904 66 338 0.0 0.0 0.00 0.00 0.00 90 1021.2
20240229092404 66 338 0.0 0.0 0.00 0.00 0.00 90 1021.2
20240229091904 66 338 0.0 0.0 0.00 0.00 0.00 90 1021.2
20240229091406 66 338 0.0 0.0 0.00 0.00 0.00 90 1021.2
20240229090904 66 338 0.0 0.0 0.00 0.00 0.00 90 1021.2
20240229090404 66 338 0.0 0.0 0.00 0.00 0.00 90 1021.3
20240229085904 67 338 0.0 0.0 0.00 0.00 0.00 90 1021.3
20240229085404 66 338 0.0 0.0 0.00 0.00 0.00 89 1021.1
20240229084404 66 338 0.0 0.0 0.00 0.00 0.00 89 1021.1
20240229083906 67 338 0.0 0.0 0.00 0.00 0.00 89 1021.2
20240229083404 67 338 0.0 0.0 0.00 0.00 0.00 89 1021.2
20240229082904 67 338 0.0 0.0 0.00 0.00 0.00 89 1021.3
20240229082405 67 338 0.0 0.0 0.00 0.00 0.00 89 1021.3
20240229081904 67 338 0.0 0.0 0.00 0.00 0.00 89 1021.3
20240229081404 67 338 0.0 1.0 0.00 0.00 0.00 89 1021.3
20240229080904 67 338 0.0 1.0 0.00 0.00 0.00 89 1021.3
20240229080404 67 338 0.0 0.0 0.00 0.00 0.00 89 1021.4
20240229075904 67 338 0.0 0.0 0.00 0.00 0.00 89 1021.4
20240229075404 67 338 0.0 0.0 0.00 0.00 0.00 89 1021.4
20240229074904 66 338 0.0 0.0 0.00 0.00 0.00 88 1021.4
20240229073405 66 338 0.0 0.0 0.00 0.00 0.00 88 1021.7
20240229072904 66 338 0.0 0.0 0.00 0.00 0.00 88 1021.7
20240229071904 66 338 0.0 0.0 0.00 0.00 0.00 88 1021.7
20240229071404 66 338 0.0 0.0 0.00 0.00 0.00 88 1021.9
20240229070904 66 338 0.0 0.0 0.00 0.00 0.00 88 1021.9
20240229065904 66 338 0.0 0.0 0.00 0.00 0.00 88 1022.0
20240229065404 66 338 0.0 0.0 0.00 0.00 0.00 88 1022.0
20240229064904 66 338 0.0 0.0 0.00 0.00 0.00 88 1022.0
20240229064404 66 338 0.0 0.0 0.00 0.00 0.00 88 1022.0
20240229063904 66 338 0.0 0.0 0.00 0.00 0.00 88 1021.9
20240229062905 66 338 0.0 0.0 0.00 0.00 0.00 88 1021.9
20240229062404 66 338 0.0 0.0 0.00 0.00 0.00 88 1021.9
20240229061405 66 338 0.0 0.0 0.00 0.00 0.00 88 1022.1
20240229060904 66 338 0.0 0.0 0.00 0.00 0.00 87 1022.1
20240229055904 67 338 0.0 0.0 0.00 0.00 0.00 87 1022.2
20240229055404 67 338 0.0 0.0 0.00 0.00 0.00 87 1022.3
20240229054904 67 338 0.0 0.0 0.00 0.00 0.00 86 1022.3
20240229053404 67 338 0.0 0.0 0.00 0.00 0.00 86 1022.4
20240229052905 67 338 0.0 0.0 0.00 0.00 0.00 86 1022.2
20240229052404 67 338 2.0 2.0 0.00 0.00 0.00 86 1022.2
20240229051904 67 338 0.0 0.0 0.00 0.00 0.00 86 1022.2
20240229051404 67 338 0.0 0.0 0.00 0.00 0.00 86 1022.2
20240229050904 67 338 0.0 0.0 0.00 0.00 0.00 86 1022.2
20240229050404 67 338 0.0 0.0 0.00 0.00 0.00 86 1022.3
20240229045403 67 338 0.0 0.0 0.00 0.00 0.00 86 1022.2
20240229044904 67 338 0.0 0.0 0.00 0.00 0.00 85 1022.2
20240229044404 68 338 0.0 0.0 0.00 0.00 0.00 85 1022.2
20240229043904 68 338 0.0 0.0 0.00 0.00 0.00 85 1022.1
20240229042904 68 338 0.0 0.0 0.00 0.00 0.00 85 1022.1
20240229042404 68 338 0.0 0.0 0.00 0.00 0.00 84 1022.1
20240229041404 68 338 0.0 0.0 0.00 0.00 0.00 82 1022.1
20240229040904 68 338 0.0 0.0 0.00 0.00 0.00 81 1022.1
20240229040404 69 338 0.0 0.0 0.00 0.00 0.00 81 1022.1
20240229035905 69 338 0.0 0.0 0.00 0.00 0.00 81 1022.1
20240229035404 69 338 0.0 0.0 0.00 0.00 0.00 81 1022.0
20240229034904 69 338 1.0 1.0 0.00 0.00 0.00 81 1022.0
20240229034404 70 338 0.0 2.0 0.00 0.00 0.00 81 1022.0
20240229033904 70 338 0.0 2.0 0.00 0.00 0.00 81 1021.9
20240229033404 70 338 1.0 2.0 0.00 0.00 0.00 81 1021.9
20240229032404 70 338 2.0 2.0 0.00 0.00 0.00 81 1021.8
20240229031904 70 338 2.0 3.0 0.00 0.00 0.00 81 1021.8
20240229031404 70 338 2.0 2.0 0.00 0.00 0.00 81 1021.9
20240229030904 70 338 2.0 2.0 0.00 0.00 0.00 81 1021.9
20240229030403 70 338 2.0 3.0 0.00 0.00 0.00 80 1021.9
20240229025904 70 338 2.0 2.0 0.00 0.00 0.00 80 1021.9
20240229024904 70 338 2.0 2.0 0.00 0.00 0.00 80 1021.7
20240229024404 70 338 2.0 3.0 0.00 0.00 0.00 80 1021.7
20240229023904 71 338 3.0 3.0 0.00 0.00 0.00 80 1021.8
20240229023403 71 338 2.0 3.0 0.00 0.00 0.00 80 1021.8
20240229022904 71 338 2.0 3.0 0.00 0.00 0.00 80 1021.7
20240229022404 71 338 2.0 3.0 0.00 0.00 0.00 80 1021.7
20240229020903 71 338 1.0 2.0 0.00 0.00 0.00 79 1021.4